SCP
0 0 0 0 0 0 0 0 0 0 -0 -0 -0 -0 -0 0 0 0 0 0 -0 -0 0 -0 -0 0 0 0 0 0 0 0 0 0 0 0 0 0 0 0 0 0 0
0 0 0 0 0 0 0 0 0 -0 0 -0 -0 -0 -0 0 -0 -0 -0 -0 0 -0 0 0 0 0 0 -0 0 0 0 0 0 0 0 0 0 0 0 0 0 0 0
0 -0 0 0 0 0 -0 0 -0 0 0 -0 -0 -0 0 -0 -0 0 0 0 0 0 0 0 -0 0 0 0 -0 0 0 0 0 0 0 0 0 0 0 0 0 0 0
0 -0 -0 0 0 -0 -0 0 0 0 -0 -0 -0 0 -0 -0 -0 0 0 0 0 0 0 0 0 0 -0 0 0 -0 -0 0 0 0 0 0 0 0 0 0 0 0 0
-0 -0 -0 0 0 -0 -0 0 0 0 -0 0 0 -0 -0 -0 -0 0 0 0 0 0 0 0 0 0 0 0 0 0 0 0 0 0 0 0 0 0 0 0 0 0 0
-0 -0 -0 0 -0 -0 -0 -0 0 0 -0 0 0 -0 -0 -0 -0 -0 0 0 0 0 0 0 0 -0 0 0 0 0 0 0 0 0 0 0 0 0 0 0 -0 -0 -0
-0 -0 -0 -0 -0 -0 0 0 -0 0 -0 0 0 -0 -0 -0 -0 0 0 0 0 -0 0 0 0 0 0 0 0 0 0 0 0 0 0 0 0 0 -0 -0 -0 -0 0
-0 -0 -0 -0 -0 -0 -0 -0 -0 -0 -0 0 0 0 -0 0 0 -0 -0 0 -0 0 0 0 0 0 0 0 0 0 0 0 0 0 -0 -0 -0 -0 -0 -0 -0 -0 -0
-0 -0 -0 -0 -0 -0 -0 -0 -0 -0 -0 0 0 0 -0 0 0 -0 -0 -0 0 0 0 0 0 0 -0 -0 0 0 0 0 0 0 -0 -0 0 0 -0 -0 -0 -0 -0
-0 -0 -0 -0 0 -0 -0 0 0 -0 0 0 0 0 0 0 0 0 0 -0 0 0 0 0 0 0 0 0 0 0 0 -0 -0 -0 -0 -0 -0 -0 0 0 -0 -0 0
-0 -0 -0 -0 -0 0 0 0 0 0 -0 -0 0 0 0 0 0 0 0 0 0 0 0 0 0 -0 0 0 0 0 0 -0 -0 -0 -0 -0 -0 -0 -0 -0 -0 -0 -0
-0 -0 -0 -0 -0 0 0 -0 0 -0 0 0 0 -0 -0 0 0 0 0 -0 0 -0 0 -0 0 0 0 0 0 -0 0 -0 -0 -0 -0 -0 -0 -0 -0 -0 -0 0 0
-0 -0 -0 -0 -0 -0 0 0 -0 0 0 0 0 0 -0 0 0 0 0 0 -0 -0 -0 -0 0 -0 -0 -0 0 -0 -0 -0 -0 -0 -0 -0 0 -0 -0 -0 -0 0 0
-0 -0 -0 -0 -0 -0 0 -0 0 0 0 0 0 0 0 -0 0 0 0 0 0 -0 -0 0 0 0 0 -0 -0 -0 -0 -0 0 0 0 0 0 0 -0 -0 0 0 0
-0 -0 -0 -0 0 0 0 0 0 0 0 0 0 0 0 0 0 0 0 0 -0 -0 0 0 0 0 -0 -0 -0 -0 -0 -0 -0 0 0 0 0 -0 -0 0 0 0 0
-0 -0 -0 -0 0 0 0 0 0 0 -0 -0 0 0 0 0 0 0 0 -0 -0 -0 0 0 0 -0 0 0 0 0 0 -0 -0 0 -0 -0 -0 -0 -0 0 0 0 0
-0 -0 -0 -0 0 0 0 0 0 0 0 -0 0 -0 0 -0 -0 -0 -0 -0 -0 -0 -0 -0 -0 -0 -0 -0 -0 -0 -0 -0 -0 -0 0 -0 -0 -0 0 0 0 0 0
-0 -0 -0 -0 -0 0 0 0 0 0 0 0 0 -0 -0 -0 -0 -0 -0 -0 -0 -0 0 0 0 0 0 -0 -0 -0 -0 0 0 0 0 0 0 0 0 0 0 0 0
-0 -0 -0 -0 -0 -0 0 0 0 0 0 0 -0 0 -0 -0 -0 -0 -0 -0 -0 0 0 0 0 -0 -0 0 -0 -0 -0 -0 -0 -0 0 0 0 0 0 0 0 0 0
-0 -0 -0 0 0 0 0 0 0 0 0 0 0 0 0 0 0 -0 -0 -0 -0 -0 -0 0 0 0 -0 -0 -0 -0 0 0 0 0 0 0 0 0 0 0 0 0 0
0 0 0 -0 0 0 0 0 0 0 0 0 0 0 -0 0 0 0 0 -0 -0 -0 -0 -0 -0 0 -0 0 0 0 0 0 0 0 0 0 0 0 0 0 0 0 0
0 0 0 0 -0 0 0 0 0 0 0 0 0 0 0 0 0 0 0 0 0 0 0 0 0 0 -0 0 0 0 0 0 0 0 0 0 0 0 0 0 0 0 0
0 0 0 0 0 -0 0 0 0 0 0 0 0 0 0 0 0 0 0 0 0 0 0 0 0 0 0 0 0 0 0 0 0 0 0 0 0 0 0 0 0 0 0
0 0 0 0 0 0 0 0 0 0 0 0 0 0 0 0 0 0 0 0 0 0 0 0 0 0 0 0 0 0 0 0 0 0 0 0 0 0 0 0 0 0 0
1 0 0 0 0 0 0 0 0 0 0 0 0 0 0 0 0 0 0 0 0 0 0 0 0 0 0 0 0 0 0 0 0 0 0 0 0 0 0 0 0 0 0
1 1 1 0 1 0 0 0 0 0 0 0 0 0 0 0 0 0 0 0 0 0 0 0 0 0 0 0 0 0 0 0 0 0 0 0 0 0 0 0 0 0 0
Wind_Speed_500mb
32 25 27 15 11 7 9 9 15 18 17 11 8 9 8 6 6 5 6 9 9 7 11 11 8 5 4 5 20 32 33 50 56 47 54 64 69 85 90 85 83 80 68
29 25 16 13 14 16 13 13 15 19 18 15 5 1 8 9 11 10 8 5 13 11 10 9 10 9 10 15 27 39 34 43 62 68 56 69 80 87 88 87 80 65 62
29 21 13 16 18 12 18 19 17 20 18 12 5 7 7 8 11 12 11 10 12 9 10 9 10 13 17 23 30 39 33 46 58 70 78 67 74 82 83 74 67 70 60
31 22 17 16 8 19 16 23 19 17 13 11 7 4 2 8 11 11 12 8 3 9 8 4 22 19 28 35 33 27 37 57 66 78 81 83 83 58 69 67 61 52 55
27 23 14 9 13 16 20 22 20 17 15 10 8 11 5 2 5 7 14 9 8 15 18 23 23 23 19 27 34 37 48 84 76 69 84 83 74 72 71 62 62 62 52
28 23 8 16 21 16 23 22 19 17 16 15 18 10 11 2 9 8 14 14 15 19 23 29 19 27 27 30 33 44 61 86 90 78 80 78 73 69 66 62 62 65 49
29 14 24 24 22 23 23 21 19 21 20 17 18 15 9 6 6 7 12 13 16 24 31 28 31 33 31 41 44 58 77 75 71 71 73 62 70 56 54 61 56 52 48
32 29 24 25 24 25 22 19 15 20 22 21 20 18 13 10 7 11 12 15 21 26 26 28 37 39 40 45 50 69 68 57 58 58 60 56 54 60 64 59 48 34 33
33 32 29 26 26 24 20 16 12 14 18 18 19 19 11 12 12 19 19 21 27 33 30 28 34 44 39 46 54 72 67 47 51 61 61 60 61 62 50 52 40 41 46
34 33 32 29 24 19 18 17 11 17 12 10 18 19 10 16 18 26 22 28 35 41 37 34 33 40 39 36 51 50 59 65 59 65 65 48 49 51 50 49 38 39 47
35 37 34 30 28 28 19 11 20 14 11 19 18 17 13 19 23 26 29 30 35 39 38 37 42 44 39 36 44 48 60 71 67 71 52 38 45 44 52 43 30 34 42
38 39 39 35 28 19 21 22 17 15 11 21 20 20 19 21 30 33 35 38 31 36 43 49 47 48 45 40 44 58 61 60 63 56 54 41 45 50 49 36 29 32 34
41 41 44 31 33 18 19 23 15 19 13 21 24 17 23 25 32 37 40 39 35 38 49 51 51 45 44 45 48 53 58 58 55 54 48 39 42 43 41 40 36 33 38
45 44 43 36 35 23 17 24 17 19 17 25 22 25 21 21 30 43 48 46 37 40 46 49 47 46 38 39 42 48 45 36 34 35 33 33 32 41 41 42 33 34 33
49 49 45 41 37 33 28 18 25 15 19 24 24 20 21 23 25 45 52 48 42 41 44 45 43 38 42 46 51 44 38 38 37 35 33 33 36 44 46 44 39 38 41
55 50 49 43 47 34 35 32 23 29 22 12 24 23 18 15 19 43 49 40 35 40 39 45 40 31 41 47 49 34 29 36 38 36 45 47 51 48 42 40 36 38 41
58 53 48 45 44 42 38 36 37 28 31 26 27 21 23 25 15 33 46 45 37 38 41 39 36 38 38 34 38 35 34 46 41 37 43 43 41 36 39 46 41 41 39
59 54 51 51 46 44 44 42 37 42 40 38 36 32 24 27 24 27 40 47 46 47 40 32 31 34 39 43 42 43 40 39 50 45 38 43 44 46 48 52 49 48 51
62 58 54 49 47 43 45 44 44 43 35 38 45 49 42 35 32 30 38 45 49 49 53 44 40 40 41 43 44 44 47 51 51 51 53 49 51 50 55 56 56 52 49
62 61 59 51 48 49 45 49 46 45 48 44 49 51 57 56 53 51 51 52 51 49 53 54 48 41 44 45 46 50 50 54 55 57 56 57 54 54 58 57 55 55 55
61 58 60 58 51 51 51 51 50 50 49 53 55 57 46 60 65 64 63 63 62 56 49 47 52 55 49 44 51 53 55 59 61 61 61 60 60 65 61 57 55 54 55
59 59 63 65 57 53 57 54 53 52 51 51 53 58 55 49 53 65 64 66 68 68 62 56 53 52 50 59 52 53 58 60 60 59 63 67 62 63 62 59 59 58 47
67 63 63 66 67 54 57 59 57 57 55 54 52 56 59 62 59 55 54 55 54 56 62 71 69 63 61 59 59 62 66 66 63 61 64 60 61 62 58 58 60 56 60
68 67 66 70 68 67 57 66 63 62 60 57 58 58 61 64 65 63 57 50 57 58 51 50 50 66 73 69 68 65 65 66 63 66 63 61 62 60 61 61 57 60 63
33 66 69 63 75 72 71 62 70 65 67 67 64 67 67 65 67 70 72 67 65 70 72 69 61 60 58 66 73 73 71 69 69 67 64 65 63 60 61 61 59 60 70
30 36 55 75 56 77 72 74 69 77 75 72 76 69 71 72 72 71 71 70 69 74 70 73 77 73 68 64 63 70 74 72 71 67 65 66 63 60 64 64 58 66 74
Wind_Direction_500mb
165 172 176 186 176 203 205 185 166 147 156 138 72 21 338 352 309 277 243 210 211 229 257 194 209 250 196 176 164 168 166 171 145 144 157 155 158 160 152 144 145 149 146
169 179 190 190 184 201 159 166 176 150 139 133 148 254 340 333 316 306 293 214 238 237 271 241 222 187 175 158 161 178 187 170 148 145 151 150 146 144 144 147 147 145 145
176 178 191 191 199 207 152 158 123 142 146 134 147 224 295 340 353 5 18 170 206 192 192 237 209 177 184 166 162 173 162 155 153 151 147 147 148 144 140 145 144 146 147
178 179 173 196 209 154 162 157 154 157 153 147 190 270 58 340 36 22 348 31 204 170 160 153 151 155 163 151 148 161 154 158 153 147 146 144 144 141 149 146 146 152 153
172 179 186 177 155 146 155 149 158 158 146 174 169 127 133 288 75 50 38 59 83 129 139 137 127 144 154 151 150 158 167 151 149 131 144 147 147 143 150 142 140 142 143
164 157 166 144 153 140 147 157 157 159 176 177 157 133 189 115 72 70 53 73 96 115 133 137 135 144 145 144 133 147 151 145 146 146 148 149 152 148 148 151 147 146 139
170 160 147 153 155 146 149 153 172 166 169 169 161 184 212 212 60 87 79 83 119 121 129 130 132 138 139 142 139 146 150 151 155 158 159 152 156 161 152 151 151 148 151
169 152 153 155 153 148 153 153 158 174 171 177 180 194 239 183 102 124 87 91 123 127 126 128 135 140 144 149 153 157 156 155 163 160 153 155 148 147 144 146 151 150 150
167 160 158 155 154 150 149 165 189 178 187 192 183 179 218 158 126 134 107 111 126 128 122 126 136 141 145 157 161 165 162 156 162 149 147 139 141 151 150 147 150 165 162
167 165 162 160 163 158 162 178 144 109 109 124 163 158 184 141 136 144 128 134 130 134 127 131 138 149 156 160 158 158 168 154 155 163 152 145 154 160 159 165 162 173 171
168 163 161 159 155 151 149 141 127 146 139 123 134 163 171 144 140 136 139 146 140 143 141 136 132 138 141 148 157 157 154 159 155 162 164 161 162 170 166 169 183 177 195
171 167 166 162 165 173 147 146 141 156 140 131 112 120 128 134 142 135 133 130 132 148 146 142 138 135 130 137 151 160 157 158 161 161 167 171 175 175 177 181 190 205 212
175 171 172 170 174 177 150 147 161 149 125 143 138 138 132 137 145 142 138 135 136 141 144 143 141 138 136 132 138 141 150 159 163 170 179 183 183 184 179 191 207 208 212
177 173 174 167 180 169 165 156 157 170 179 155 146 149 153 153 154 153 149 148 152 141 140 142 141 146 153 154 150 151 151 154 167 177 182 186 186 179 186 213 213 212 216
180 181 175 177 179 177 176 171 181 164 201 189 165 138 154 166 159 165 160 158 159 155 146 146 145 150 157 158 156 158 167 181 190 189 178 169 177 189 204 217 229 225 231
182 184 187 188 191 190 189 185 191 183 199 161 167 179 164 145 145 163 153 154 166 167 162 158 147 151 165 164 167 171 179 183 189 196 189 184 192 209 216 223 227 226 229
185 189 193 193 198 195 193 198 202 193 196 202 188 193 186 165 163 166 177 172 177 181 175 170 175 178 186 182 186 183 191 198 193 186 202 211 222 221 206 223 228 227 231
194 195 195 198 199 198 200 202 202 210 200 204 203 206 191 197 194 186 181 177 181 188 181 194 193 190 193 200 201 205 205 210 206 200 205 216 222 213 214 223 231 228 232
200 197 200 206 200 202 203 204 207 205 209 206 211 210 209 201 201 202 202 201 199 200 197 193 211 212 214 213 214 215 215 218 227 225 216 224 228 224 223 231 233 237 237
202 204 206 204 204 208 205 206 209 207 207 202 215 215 208 209 210 209 209 209 214 220 219 215 204 217 223 223 221 222 224 226 227 230 234 232 227 231 235 230 234 238 234
200 209 209 209 209 208 209 211 210 211 210 208 209 224 225 220 218 220 220 218 218 213 224 230 228 216 217 228 230 230 232 232 233 232 234 235 235 232 236 238 235 240 241
203 208 212 214 212 212 212 214 215 213 215 214 213 220 234 230 231 230 231 231 230 229 221 222 234 235 231 223 227 232 233 235 235 237 240 239 238 238 237 242 242 239 243
204 210 212 217 215 219 217 214 216 218 218 218 216 218 228 229 229 232 239 243 239 237 236 232 225 229 233 238 240 235 238 238 238 238 239 240 239 240 242 243 243 243 239
211 209 213 217 218 214 221 217 215 219 220 221 220 222 227 230 230 236 242 244 241 247 247 248 243 235 230 234 236 238 242 242 242 242 243 242 239 240 241 241 242 240 239
226 218 215 220 217 219 217 223 216 216 220 220 222 221 228 234 236 233 234 236 232 232 237 244 247 250 248 238 236 239 241 242 241 242 241 241 242 240 242 242 240 238 235
239 252 228 220 229 219 223 219 225 223 220 223 222 223 222 228 236 238 240 238 235 231 233 239 240 245 249 251 246 239 238 243 244 241 241 240 238 240 242 240 238 235 238
Wind_Speed_850mb
32 25 27 15 11 7 9 9 15 18 17 11 8 9 8 6 6 5 6 9 9 7 11 11 8 5 4 5 20 32 33 50 56 47 54 64 69 85 90 85 83 80 68
29 25 16 13 14 16 13 13 15 19 18 15 5 1 8 9 11 10 8 5 13 11 10 9 10 9 10 15 27 39 34 43 62 68 56 69 80 87 88 87 80 65 62
29 21 13 16 18 12 18 19 17 20 18 12 5 7 7 8 11 12 11 10 12 9 10 9 10 13 17 23 30 39 33 46 58 70 78 67 74 82 83 74 67 70 60
31 22 17 16 8 19 16 23 19 17 13 11 7 4 2 8 11 11 12 8 3 9 8 4 22 19 28 35 33 27 37 57 66 78 81 83 83 58 69 67 61 52 55
27 23 14 9 13 16 20 22 20 17 15 10 8 11 5 2 5 7 14 9 8 15 18 23 23 23 19 27 34 37 48 84 76 69 84 83 74 72 71 62 62 62 52
28 23 8 16 21 16 23 22 19 17 16 15 18 10 11 2 9 8 14 14 15 19 23 29 19 27 27 30 33 44 61 86 90 78 80 78 73 69 66 62 62 65 49
29 14 24 24 22 23 23 21 19 21 20 17 18 15 9 6 6 7 12 13 16 24 31 28 31 33 31 41 44 58 77 75 71 71 73 62 70 56 54 61 56 52 48
32 29 24 25 24 25 22 19 15 20 22 21 20 18 13 10 7 11 12 15 21 26 26 28 37 39 40 45 50 69 68 57 58 58 60 56 54 60 64 59 48 34 33
33 32 29 26 26 24 20 16 12 14 18 18 19 19 11 12 12 19 19 21 27 33 30 28 34 44 39 46 54 72 67 47 51 61 61 60 61 62 50 52 40 41 46
34 33 32 29 24 19 18 17 11 17 12 10 18 19 10 16 18 26 22 28 35 41 37 34 33 40 39 36 51 50 59 65 59 65 65 48 49 51 50 49 38 39 47
35 37 34 30 28 28 19 11 20 14 11 19 18 17 13 19 23 26 29 30 35 39 38 37 42 44 39 36 44 48 60 71 67 71 52 38 45 44 52 43 30 34 42
38 39 39 35 28 19 21 22 17 15 11 21 20 20 19 21 30 33 35 38 31 36 43 49 47 48 45 40 44 58 61 60 63 56 54 41 45 50 49 36 29 32 34
41 41 44 31 33 18 19 23 15 19 13 21 24 17 23 25 32 37 40 39 35 38 49 51 51 45 44 45 48 53 58 58 55 54 48 39 42 43 41 40 36 33 38
45 44 43 36 35 23 17 24 17 19 17 25 22 25 21 21 30 43 48 46 37 40 46 49 47 46 38 39 42 48 45 36 34 35 33 33 32 41 41 42 33 34 33
49 49 45 41 37 33 28 18 25 15 19 24 24 20 21 23 25 45 52 48 42 41 44 45 43 38 42 46 51 44 38 38 37 35 33 33 36 44 46 44 39 38 41
55 50 49 43 47 34 35 32 23 29 22 12 24 23 18 15 19 43 49 40 35 40 39 45 40 31 41 47 49 34 29 36 38 36 45 47 51 48 42 40 36 38 41
58 53 48 45 44 42 38 36 37 28 31 26 27 21 23 25 15 33 46 45 37 38 41 39 36 38 38 34 38 35 34 46 41 37 43 43 41 36 39 46 41 41 39
59 54 51 51 46 44 44 42 37 42 40 38 36 32 24 27 24 27 40 47 46 47 40 32 31 34 39 43 42 43 40 39 50 45 38 43 44 46 48 52 49 48 51
62 58 54 49 47 43 45 44 44 43 35 38 45 49 42 35 32 30 38 45 49 49 53 44 40 40 41 43 44 44 47 51 51 51 53 49 51 50 55 56 56 52 49
62 61 59 51 48 49 45 49 46 45 48 44 49 51 57 56 53 51 51 52 51 49 53 54 48 41 44 45 46 50 50 54 55 57 56 57 54 54 58 57 55 55 55
61 58 60 58 51 51 51 51 50 50 49 53 55 57 46 60 65 64 63 63 62 56 49 47 52 55 49 44 51 53 55 59 61 61 61 60 60 65 61 57 55 54 55
59 59 63 65 57 53 57 54 53 52 51 51 53 58 55 49 53 65 64 66 68 68 62 56 53 52 50 59 52 53 58 60 60 59 63 67 62 63 62 59 59 58 47
67 63 63 66 67 54 57 59 57 57 55 54 52 56 59 62 59 55 54 55 54 56 62 71 69 63 61 59 59 62 66 66 63 61 64 60 61 62 58 58 60 56 60
68 67 66 70 68 67 57 66 63 62 60 57 58 58 61 64 65 63 57 50 57 58 51 50 50 66 73 69 68 65 65 66 63 66 63 61 62 60 61 61 57 60 63
33 66 69 63 75 72 71 62 70 65 67 67 64 67 67 65 67 70 72 67 65 70 72 69 61 60 58 66 73 73 71 69 69 67 64 65 63 60 61 61 59 60 70
30 36 55 75 56 77 72 74 69 77 75 72 76 69 71 72 72 71 71 70 69 74 70 73 77 73 68 64 63 70 74 72 71 67 65 66 63 60 64 64 58 66 74
Wind_Direction_850mb
165 172 176 186 176 203 205 185 166 147 156 138 72 21 338 352 309 277 243 210 211 229 257 194 209 250 196 176 164 168 166 171 145 144 157 155 158 160 152 144 145 149 146
169 179 190 190 184 201 159 166 176 150 139 133 148 254 340 333 316 306 293 214 238 237 271 241 222 187 175 158 161 178 187 170 148 145 151 150 146 144 144 147 147 145 145
176 178 191 191 199 207 152 158 123 142 146 134 147 224 295 340 353 5 18 170 206 192 192 237 209 177 184 166 162 173 162 155 153 151 147 147 148 144 140 145 144 146 147
178 179 173 196 209 154 162 157 154 157 153 147 190 270 58 340 36 22 348 31 204 170 160 153 151 155 163 151 148 161 154 158 153 147 146 144 144 141 149 146 146 152 153
172 179 186 177 155 146 155 149 158 158 146 174 169 127 133 288 75 50 38 59 83 129 139 137 127 144 154 151 150 158 167 151 149 131 144 147 147 143 150 142 140 142 143
164 157 166 144 153 140 147 157 157 159 176 177 157 133 189 115 72 70 53 73 96 115 133 137 135 144 145 144 133 147 151 145 146 146 148 149 152 148 148 151 147 146 139
170 160 147 153 155 146 149 153 172 166 169 169 161 184 212 212 60 87 79 83 119 121 129 130 132 138 139 142 139 146 150 151 155 158 159 152 156 161 152 151 151 148 151
169 152 153 155 153 148 153 153 158 174 171 177 180 194 239 183 102 124 87 91 123 127 126 128 135 140 144 149 153 157 156 155 163 160 153 155 148 147 144 146 151 150 150
167 160 158 155 154 150 149 165 189 178 187 192 183 179 218 158 126 134 107 111 126 128 122 126 136 141 145 157 161 165 162 156 162 149 147 139 141 151 150 147 150 165 162
167 165 162 160 163 158 162 178 144 109 109 124 163 158 184 141 136 144 128 134 130 134 127 131 138 149 156 160 158 158 168 154 155 163 152 145 154 160 159 165 162 173 171
168 163 161 159 155 151 149 141 127 146 139 123 134 163 171 144 140 136 139 146 140 143 141 136 132 138 141 148 157 157 154 159 155 162 164 161 162 170 166 169 183 177 195
171 167 166 162 165 173 147 146 141 156 140 131 112 120 128 134 142 135 133 130 132 148 146 142 138 135 130 137 151 160 157 158 161 161 167 171 175 175 177 181 190 205 212
175 171 172 170 174 177 150 147 161 149 125 143 138 138 132 137 145 142 138 135 136 141 144 143 141 138 136 132 138 141 150 159 163 170 179 183 183 184 179 191 207 208 212
177 173 174 167 180 169 165 156 157 170 179 155 146 149 153 153 154 153 149 148 152 141 140 142 141 146 153 154 150 151 151 154 167 177 182 186 186 179 186 213 213 212 216
180 181 175 177 179 177 176 171 181 164 201 189 165 138 154 166 159 165 160 158 159 155 146 146 145 150 157 158 156 158 167 181 190 189 178 169 177 189 204 217 229 225 231
182 184 187 188 191 190 189 185 191 183 199 161 167 179 164 145 145 163 153 154 166 167 162 158 147 151 165 164 167 171 179 183 189 196 189 184 192 209 216 223 227 226 229
185 189 193 193 198 195 193 198 202 193 196 202 188 193 186 165 163 166 177 172 177 181 175 170 175 178 186 182 186 183 191 198 193 186 202 211 222 221 206 223 228 227 231
194 195 195 198 199 198 200 202 202 210 200 204 203 206 191 197 194 186 181 177 181 188 181 194 193 190 193 200 201 205 205 210 206 200 205 216 222 213 214 223 231 228 232
200 197 200 206 200 202 203 204 207 205 209 206 211 210 209 201 201 202 202 201 199 200 197 193 211 212 214 213 214 215 215 218 227 225 216 224 228 224 223 231 233 237 237
202 204 206 204 204 208 205 206 209 207 207 202 215 215 208 209 210 209 209 209 214 220 219 215 204 217 223 223 221 222 224 226 227 230 234 232 227 231 235 230 234 238 234
200 209 209 209 209 208 209 211 210 211 210 208 209 224 225 220 218 220 220 218 218 213 224 230 228 216 217 228 230 230 232 232 233 232 234 235 235 232 236 238 235 240 241
203 208 212 214 212 212 212 214 215 213 215 214 213 220 234 230 231 230 231 231 230 229 221 222 234 235 231 223 227 232 233 235 235 237 240 239 238 238 237 242 242 239 243
204 210 212 217 215 219 217 214 216 218 218 218 216 218 228 229 229 232 239 243 239 237 236 232 225 229 233 238 240 235 238 238 238 238 239 240 239 240 242 243 243 243 239
211 209 213 217 218 214 221 217 215 219 220 221 220 222 227 230 230 236 242 244 241 247 247 248 243 235 230 234 236 238 242 242 242 242 243 242 239 240 241 241 242 240 239
226 218 215 220 217 219 217 223 216 216 220 220 222 221 228 234 236 233 234 236 232 232 237 244 247 250 248 238 236 239 241 242 241 242 241 241 242 240 242 242 240 238 235
239 252 228 220 229 219 223 219 225 223 220 223 222 223 222 228 236 238 240 238 235 231 233 239 240 245 249 251 246 239 238 243 244 241 241 240 238 240 242 240 238 235 238